Location: Newark
(47.5833°N, 8.1500°E)
Time: 02:46:56
(UTC+00:00)

ISS - Visible Passes

Search period start: 19 September 2020 00:00
Search period end: 29 September 2020 00:00
Orbit: 419 x 420 km, 51.6° (Epoch: 19 September)

Date Brightness Start Highest point End Pass type
(mag) Time Alt. Az. Time Alt. Az. Time Alt. Az.
19 Sep -3.6 18:51:36 10° SW 18:54:54 53° SSE 18:56:09 32° E visible
19 Sep -0.8 20:28:29 10° W 20:29:08 15° W 20:29:08 15° W visible
20 Sep -3.0 18:04:29 10° SSW 18:07:35 35° SE 18:10:42 10° ENE visible
20 Sep -3.0 19:40:58 10° W 19:43:52 52° NW 19:43:52 52° NW visible
21 Sep -3.7 18:53:29 10° WSW 18:56:52 76° NNW 18:58:29 28° ENE visible
21 Sep -0.6 20:30:46 10° WNW 20:31:27 15° WNW 20:31:27 15° WNW visible
22 Sep -3.8 18:06:04 10° WSW 18:09:27 79° SSE 18:12:50 10° ENE visible
22 Sep -2.4 19:43:13 10° W 19:45:58 39° NNW 19:45:58 39° NNW visible
23 Sep -3.0 18:55:39 10° W 18:58:56 47° NNW 19:00:24 27° NE visible
23 Sep -0.4 20:32:54 10° WNW 20:33:21 13° WNW 20:33:21 13° WNW visible
24 Sep -3.3 18:08:06 10° W 18:11:26 58° NNW 18:14:46 10° ENE visible
24 Sep -2.1 19:45:24 10° WNW 19:47:44 32° NW 19:47:44 32° NW visible
25 Sep -2.7 18:57:50 10° WNW 19:01:03 39° N 19:02:04 31° NE visible
25 Sep -0.2 20:34:52 10° WNW 20:35:01 11° WNW 20:35:01 11° WNW visible
26 Sep -2.8 18:10:16 10° W 18:13:29 42° N 18:16:22 12° ENE visible
26 Sep -1.8 19:47:24 10° WNW 19:49:19 29° NW 19:49:19 29° NW visible
27 Sep -3.0 18:59:53 10° WNW 19:03:09 43° N 19:03:37 40° NNE visible
28 Sep -2.8 18:12:20 10° WNW 18:15:34 40° N 18:17:54 16° ENE visible
28 Sep -1.5 19:49:15 10° WNW 19:50:51 26° WNW 19:50:51 26° WNW visible
